• In Italy
  • List of Countries
  • For 7 days
  • Water Temperature
  • Satellite Maps
  • Weather Map
  • Weather Widgets
  • user-avatar
    Login

    Hourly Weather Bregenz

    Today, 19 April, Thursday

    Time Temperature Precipitation Wind Pressure Humidity
    00:00 +6°C° 0 mm 2 mps 653 mmHg 71%
    01:00 +6°C° 0 mm 2 mps 653 mmHg 72%
    02:00 +6°C° 0 mm 2 mps 653 mmHg 73%
    03:00 +5°C° 0 mm 2 mps 653 mmHg 74%
    04:00 +5°C° 0 mm 2 mps 653 mmHg 74%
    05:00 +6°C° 0 mm 2 mps 653 mmHg 73%
    06:00 +6°C° 0 mm 2 mps 653 mmHg 72%
    07:00 +7°C° 0 mm 2 mps 653 mmHg 71%
    08:00 +11°C° 0 mm 1 mps 654 mmHg 65%
    09:00 +13°C° 0 mm 1 mps 655 mmHg 59%
    10:00 +16°C° 0 mm 1 mps 655 mmHg 53%
    11:00 +18°C° 0 mm 1 mps 655 mmHg 51%
    12:00 +19°C° 0 mm 1 mps 655 mmHg 48%
    13:00 +20°C° 0 mm 1 mps 656 mmHg 46%
    14:00 +20°C° 0 mm 1 mps 655 mmHg 48%
    15:00 +20°C° 0 mm 1 mps 655 mmHg 49%
    16:00 +19°C° 0 mm 2 mps 655 mmHg 51%
    17:00 +16°C° 0 mm 1 mps 654 mmHg 60%
    18:00 +14°C° 0 mm 1 mps 653 mmHg 70%
    19:00 +12°C° 0 mm 1 mps 652 mmHg 79%
    20:00 +11°C° 0 mm 1 mps 652 mmHg 81%
    21:00 +10°C° 0 mm 1 mps 652 mmHg 82%
    22:00 +9°C° 0 mm 1 mps 652 mmHg 83%
    23:00 +9°C° 0 mm 1 mps 652 mmHg 82%

    Tomorrow, 20 April, Friday

    Time Temperature Precipitation Wind Pressure Humidity
    00:00 +8°C° 0 mm 1 mps 652 mmHg 81%
    01:00 +8°C° 0 mm 1 mps 652 mmHg 80%
    02:00 +8°C° 0 mm 1 mps 652 mmHg 79%
    03:00 +7°C° 0 mm 1 mps 651 mmHg 78%
    04:00 +7°C° 0 mm 1 mps 651 mmHg 77%
    05:00 +8°C° 0 mm 1 mps 651 mmHg 75%
    06:00 +9°C° 0 mm 1 mps 652 mmHg 73%
    07:00 +10°C° 0 mm 1 mps 652 mmHg 71%
    08:00 +12°C° 0 mm 1 mps 653 mmHg 65%
    09:00 +15°C° 0 mm 1 mps 653 mmHg 58%
    10:00 +19°C° 0 mm 1 mps 654 mmHg 52%
    11:00 +20°C° 0 mm 1 mps 654 mmHg 49%
    12:00 +21°C° 0 mm 1 mps 654 mmHg 47%
    13:00 +22°C° 0 mm 1 mps 654 mmHg 44%
    14:00 +22°C° 0 mm 1 mps 654 mmHg 45%
    15:00 +21°C° 0 mm 1 mps 653 mmHg 46%
    16:00 +21°C° 0 mm 1 mps 653 mmHg 47%
    17:00 +19°C° 0 mm 1 mps 652 mmHg 58%
    18:00 +16°C° 0 mm 1 mps 652 mmHg 68%
    19:00 +12°C° 0 mm 0 mps 651 mmHg 78%
    20:00 +13°C° 0 mm 1 mps 651 mmHg 79%
    21:00 +12°C° 0 mm 1 mps 651 mmHg 80%
    22:00 +11°C° 0 mm 1 mps 651 mmHg 81%
    23:00 +10°C° 0 mm 1 mps 651 mmHg 79%

    Day after tomorrow, 21 April, Saturday

    Time Temperature Precipitation Wind Pressure Humidity
    00:00 +10°C° 0 mm 1 mps 651 mmHg 77%
    01:00 +9°C° 0 mm 1 mps 650 mmHg 75%
    02:00 +9°C° 0 mm 1 mps 650 mmHg 73%
    03:00 +9°C° 0 mm 1 mps 650 mmHg 71%
    04:00 +9°C° 0 mm 1 mps 650 mmHg 70%
    05:00 +9°C° 0 mm 1 mps 650 mmHg 68%
    06:00 +10°C° 0 mm 1 mps 650 mmHg 67%
    07:00 +11°C° 0 mm 1 mps 650 mmHg 65%
    08:00 +13°C° 0 mm 1 mps 651 mmHg 59%
    09:00 +16°C° 0 mm 1 mps 652 mmHg 54%
    10:00 +19°C° 0 mm 1 mps 652 mmHg 48%
    11:00 +20°C° 0 mm 1 mps 652 mmHg 47%
    12:00 +21°C° 0 mm 1 mps 652 mmHg 46%
    13:00 +21°C° 0 mm 1 mps 652 mmHg 45%
    14:00 +21°C° 0.1 mm 1 mps 652 mmHg 47%
    15:00 +21°C° 0.1 mm 1 mps 651 mmHg 49%
    16:00 +21°C° 0.1 mm 1 mps 651 mmHg 51%
    17:00 +19°C° 0.2 mm 1 mps 650 mmHg 61%
    18:00 +15°C° 0.2 mm 1 mps 650 mmHg 72%
    19:00 +13°C° 0.2 mm 1 mps 649 mmHg 82%
    20:00 +13°C° 0.1 mm 1 mps 649 mmHg 84%
    21:00 +12°C° 0.1 mm 1 mps 649 mmHg 86%
    22:00 +11°C° 0.1 mm 1 mps 649 mmHg 88%
    23:00 +10°C° 0 mm 1 mps 649 mmHg 87%

    22 April, Sunday

    Time Temperature Precipitation Wind Pressure Humidity
    00:00 +10°C° 0 mm 1 mps 648 mmHg 86%
    01:00 +9°C° 0 mm 1 mps 648 mmHg 85%
    02:00 +9°C° 0 mm 1 mps 648 mmHg 85%
    03:00 +9°C° 0 mm 1 mps 648 mmHg 84%
    04:00 +9°C° 0 mm 1 mps 648 mmHg 83%
    05:00 +9°C° 0 mm 1 mps 648 mmHg 81%
    06:00 +10°C° 0 mm 1 mps 648 mmHg 79%
    07:00 +11°C° 0 mm 1 mps 648 mmHg 76%
    08:00 +13°C° 0 mm 1 mps 648 mmHg 69%
    09:00 +15°C° 0 mm 1 mps 649 mmHg 62%
    10:00 +18°C° 0 mm 1 mps 649 mmHg 55%
    11:00 +18°C° 0.2 mm 2 mps 649 mmHg 53%
    12:00 +19°C° 0.2 mm 2 mps 649 mmHg 51%
    13:00 +19°C° 0.2 mm 2 mps 649 mmHg 49%
    14:00 +19°C° 0.4 mm 2 mps 648 mmHg 52%
    15:00 +19°C° 0.4 mm 2 mps 648 mmHg 54%
    16:00 +18°C° 0.4 mm 2 mps 648 mmHg 57%
    17:00 +16°C° 0.4 mm 2 mps 647 mmHg 64%
    18:00 +15°C° 0.4 mm 2 mps 647 mmHg 71%
    19:00 +13°C° 0.4 mm 2 mps 647 mmHg 79%
    20:00 +12°C° 0.2 mm 2 mps 647 mmHg 80%
    21:00 +10°C° 0.2 mm 2 mps 647 mmHg 81%
    22:00 +9°C° 0.2 mm 2 mps 647 mmHg 82%
    23:00 +8°C° 0 mm 2 mps 647 mmHg 83%

    23 April, Monday

    Time Temperature Precipitation Wind Pressure Humidity
    00:00 +8°C° 0 mm 2 mps 646 mmHg 84%
    01:00 +7°C° 0 mm 2 mps 646 mmHg 84%
    02:00 +7°C° 0.1 mm 2 mps 646 mmHg 85%
    03:00 +7°C° 0.1 mm 2 mps 646 mmHg 85%
    04:00 +7°C° 0.1 mm 2 mps 645 mmHg 85%
    05:00 +7°C° 0 mm 2 mps 646 mmHg 84%
    06:00 +8°C° 0 mm 2 mps 646 mmHg 83%
    07:00 +9°C° 0 mm 2 mps 646 mmHg 82%
    08:00 +10°C° 0.1 mm 3 mps 647 mmHg 77%
    09:00 +11°C° 0.1 mm 3 mps 647 mmHg 72%
    10:00 +12°C° 0.1 mm 4 mps 647 mmHg 67%
    11:00 +13°C° 0.2 mm 4 mps 647 mmHg 63%
    12:00 +13°C° 0.2 mm 5 mps 647 mmHg 58%
    13:00 +14°C° 0.2 mm 5 mps 647 mmHg 54%
    14:00 +13°C° 0.3 mm 4 mps 647 mmHg 56%
    15:00 +13°C° 0.3 mm 4 mps 647 mmHg 58%
    16:00 +13°C° 0.3 mm 4 mps 647 mmHg 60%
    17:00 +11°C° 0.2 mm 3 mps 646 mmHg 66%
    18:00 +10°C° 0.2 mm 2 mps 646 mmHg 72%
    19:00 +9°C° 0.2 mm 2 mps 646 mmHg 78%
    20:00 +8°C° 0 mm 2 mps 646 mmHg 81%
    21:00 +7°C° 0 mm 2 mps 646 mmHg 83%
    22:00 +6°C° 0 mm 2 mps 647 mmHg 85%
    23:00 +6°C° 0 mm 2 mps 646 mmHg 86%

    24 April, Tuesday

    Time Temperature Precipitation Wind Pressure Humidity
    00:00 +5°C° 0 mm 2 mps 646 mmHg 86%
    01:00 +5°C° 0 mm 2 mps 646 mmHg 87%
    02:00 +5°C° 0 mm 2 mps 646 mmHg 87%
    03:00 +4°C° 0 mm 2 mps 646 mmHg 86%
    04:00 +4°C° 0 mm 2 mps 645 mmHg 86%
    05:00 +5°C° 0 mm 2 mps 646 mmHg 83%
    06:00 +6°C° 0 mm 2 mps 646 mmHg 80%
    07:00 +7°C° 0 mm 2 mps 646 mmHg 77%
    08:00 +8°C° 0 mm 2 mps 647 mmHg 71%
    09:00 +10°C° 0 mm 3 mps 647 mmHg 64%
    10:00 +12°C° 0 mm 3 mps 648 mmHg 57%
    11:00 +13°C° 0 mm 3 mps 648 mmHg 54%
    12:00 +14°C° 0 mm 3 mps 648 mmHg 50%
    13:00 +16°C° 0 mm 3 mps 648 mmHg 47%
    14:00 +16°C° 0 mm 3 mps 648 mmHg 47%
    15:00 +16°C° 0 mm 3 mps 647 mmHg 47%
    16:00 +16°C° 0 mm 2 mps 647 mmHg 47%
    17:00 +15°C° 0 mm 2 mps 647 mmHg 57%
    18:00 +13°C° 0 mm 1 mps 646 mmHg 67%
    19:00 +11°C° 0 mm 1 mps 645 mmHg 76%
    20:00 +10°C° 0 mm 1 mps 645 mmHg 80%
    21:00 +9°C° 0 mm 1 mps 645 mmHg 83%
    22:00 +8°C° 0 mm 1 mps 645 mmHg 86%
    23:00 +8°C° 0 mm 1 mps 645 mmHg 86%
    Show more